{"data":{"norad_id":67143,"epoch":"2026-09-20T08:57:25.170336Z","epoch_age_seconds":117156,"freshness":"FRESH","line1":"1 67143U 25301L   26263.37320799  .00001555  00000+0  23290-3 0  9995","line2":"2 67143  51.9016 292.2631 0000409  67.6633 292.4372 14.79939723 42485","mean_motion":14.79939723,"eccentricity":4.09e-5,"inclination_deg":51.9016,"raan_deg":292.2631,"arg_perigee_deg":67.6633,"mean_anomaly_deg":292.4372,"bstar":0.0002329,"rev_number":4248,"period_min":97.301260154093,"perigee_km":629.22779346778,"apogee_km":629.80101935282,"semimajor_km":7007.6514064103,"source":"CELESTRAK","updated_at":"2026-09-21T09:00:16.456541Z"}}